Tracking 17828 objects as of 30-July-2016
HD Live streaming from Space Station
objects crossing your sky now

SL-16 DEB

Track SL-16 DEB now!
10-day predictions


NORAD ID: 36031
Int'l Code: 1996-051N
Perigee: 757.2 km
Apogee: 778.4 km
Inclination: 70.9 °
Period: 100.0 minutes
Semi major axis: 7138 km
RCS: 0.0057 m2 (small)
Launch date: September 4, 1996
Source: Commonwealth of Independent States (former USSR) (CIS)
Launch site: TYURATAM MISSILE AND SPACE COMPLEX (TTMTR)

Note: This is SATELLITE DEBRIS
Your satellite tracking list
Your tracking list is empty





NASA's NSSDC Master Catalog

Two Line Element Set (TLE):
1 36031U 96051N   16212.33630816  .00001688  00000-0  55851-3 0  9996
2 36031  70.8552 287.5622 0014788 256.1951 173.1688 14.39343728352920
Source of the keplerian elements: AFSPC

N2YO: 872